Regional Weather Roundup
Issued by NWS

Home | Current Version | Previous Version | Text Only | Print | Product List | Glossary On
Versions: 1 2 3 4 5 6 7 8 9 10 11 12 13 14 15 16 17 18 19 20 21 22 23 24 25 26 27 28 29 30 31 32 33 34 35 36 37 38 39 40 41 42 43 44 45 46 47 48 49 50
000
ASUS43 KLSX 101807
RWRMO

WEATHER SUMMARY FOR MISSOURI
NATIONAL WEATHER SERVICE SPRINGFIELD MO
1200 PM CST SAT DEC 10 2016

NOTE: "FAIR" INDICATES FEW OR NO CLOUDS BELOW 12,000 FEET WITH NO
       SIGNIFICANT WEATHER AND/OR OBSTRUCTIONS TO VISIBILITY.
       CURRENT SKY AND/OR WEATHER CONDITIONS ARE NOT AVAILABLE FOR
       CHILLICOTHE AND FARMINGTON.

MOZ001>031-035>038-043-044-053-054-101900-
...NORTHERN AND WESTERN MISSOURI...

CITY           SKY/WX    TMP DP  RH WIND       PRES   REMARKS
KANSAS CTY INT CLOUDY    33  16  49 SE9       30.31F WCI  25
6HR MIN TEMP:  26; 6HR MAX TEMP:  33;

KANSAS C DTWN  CLOUDY    34  18  52 SE5       30.33F WCI  30
6HR MIN TEMP:  28; 6HR MAX TEMP:  34;

LEE`S SUMMIT   CLOUDY    33  19  56 SE10      30.33F WCI  25
6HR MIN TEMP:  26; 6HR MAX TEMP:  33;

ST JOSEPH      CLOUDY    33  16  49 SE8       30.33F WCI  26
6HR MIN TEMP:  26; 6HR MAX TEMP:  33;

CHILLICOTHE      N/A     31  15  52 SE7       30.39F WCI  24
6HR MIN TEMP:  25; 6HR MAX TEMP:  31;

KIRKSVILLE     CLOUDY    29  13  51 SE13      30.39F WCI  19
6HR MIN TEMP:  24; 6HR MAX TEMP:  30;


$$
MOZ066>068-077>081-088>096-101>105-101900-
...SOUTHWEST MISSOURI...

CITY           SKY/WX    TMP DP  RH WIND       PRES   REMARKS
SPRINGFIELD    CLOUDY    36  18  48 SE13      30.35F WCI  27
6HR MIN TEMP:  29; 6HR MAX TEMP:  36;

JOPLIN         CLOUDY    40  14  34 S12       30.34F
6HR MIN TEMP:  33; 6HR MAX TEMP:  40;

BRANSON        CLOUDY    37  19  48 SE9       30.39F

$$
MOZ032>034-039>042-045>050-055>058-069>072-101900-
...CENTRAL MISSOURI...

CITY           SKY/WX    TMP DP  RH WIND       PRES   REMARKS
COLUMBIA       CLOUDY    31  16  54 SE7       30.40F WCI  24
6HR MIN TEMP:  25; 6HR MAX TEMP:  32;

JEFFERSON CITY CLOUDY    31  16  54 E6        30.43F WCI  25
6HR MIN TEMP:  26; 6HR MAX TEMP:  32;

ROLLA          CLOUDY    30  18  60 SE10      30.39F WCI  21
6HR MIN TEMP:  23; 6HR MAX TEMP:  30;

SEDALIA        CLOUDY    36  17  46 SE7       30.38F
6HR MIN TEMP:  26; 6HR MAX TEMP:  36;

WHITEMAN AFB   CLOUDY    36  18  49 S8        30.34F WCI  29
WARRENSBURG    CLOUDY    34  21  60 SE9       30.34F WCI  26
OSAGE BEACH    CLOUDY    33  17  51 S6        30.40F WCI  28

$$
MOZ051-052-059>065-101900-
...EAST CENTRAL MISSOURI...

CITY           SKY/WX    TMP DP  RH WIND       PRES   REMARKS
ST LOUIS INTL  CLOUDY    33  15  47 SE8       30.48F WCI  26
6HR MIN TEMP:  27; 6HR MAX TEMP:  33;

SPIRIT OF STL  CLOUDY    33  18  53 E6        30.46F WCI  28
6HR MIN TEMP:  25; 6HR MAX TEMP:  33;

ST CHARLES     CLOUDY    32  16  51 SE9       30.48F WCI  24
6HR MIN TEMP:  25; 6HR MAX TEMP:  32;


$$
MOZ072>076-082>087-097>100-106>115-101900-
...SOUTH CENTRAL AND SOUTHEAST MISSOURI...

CITY           SKY/WX    TMP DP  RH WIND       PRES   REMARKS
CAPE GIRARDEAU SUNNY     35  20  54 SE8       30.54F WCI  29
6HR MIN TEMP:  16; 6HR MAX TEMP:  35;

FARMINGTON     CLOUDY    31  18  58 S10       30.47F WCI  22
6HR MIN TEMP:  13; 6HR MAX TEMP:  31;

POPLAR BLUFF   SUNNY     34  21  59 S7        30.54F WCI  28
6HR MIN TEMP:  18; 6HR MAX TEMP:  35;

WEST PLAINS    CLOUDY    30  15  53 S12       30.44F WCI  20
6HR MIN TEMP:  17; 6HR MAX TEMP:  31;


$$



USA.gov is the U.S. government's official web portal to all federal, state and local government web resources and services.